RH
68 68 68 68 67 68 68 67 68 67 66 65 65 67 67 68 71 75 77 48 57 48 53 63 59 56 46 86 90 69 97 87 79 67 52 46 45 36 40 57 93 94 85 83 97
68 68 68 67 68 67 67 67 67 65 64 64 65 67 67 68 78 81 57 53 44 50 58 63 66 67 76 66 89 81 77 79 65 59 54 46 45 37 31 79 89 95 94 96 97
69 68 68 68 68 67 67 66 65 64 63 63 65 64 65 74 77 77 50 41 39 43 50 53 51 59 87 72 67 86 89 66 58 54 52 50 46 48 46 45 70 93 88 97 97
69 69 68 68 68 68 67 66 65 63 63 63 64 62 65 82 29 77 52 39 39 40 42 47 51 60 76 85 71 70 58 58 63 54 67 70 58 61 50 35 52 87 77 92 96
70 70 70 69 69 68 67 66 63 62 62 63 63 60 75 51 59 49 49 45 42 42 48 56 65 66 73 65 64 75 63 52 48 52 58 64 70 64 52 42 89 87 84 92 92
70 71 70 70 70 68 68 65 62 62 61 61 59 59 74 53 40 45 44 37 38 50 51 56 58 54 64 68 70 64 69 66 57 53 57 61 60 51 46 92 94 76 88 92 95
71 71 71 71 70 69 69 63 60 59 61 58 53 60 68 58 50 49 46 39 40 44 50 51 55 63 69 76 63 68 84 66 60 66 67 63 72 65 49 97 82 76 89 96 96
71 71 72 72 70 70 67 56 57 64 55 46 52 68 68 47 52 52 39 37 36 39 45 45 53 64 73 76 80 85 83 86 53 55 66 76 73 52 56 94 79 75 91 97 97
72 72 72 72 70 70 60 56 51 53 50 49 61 73 44 36 33 34 46 42 42 44 49 41 57 74 86 90 97 99 97 89 70 59 61 67 79 63 56 86 88 77 90 97 98
72 73 72 72 68 62 57 57 51 48 46 33 41 44 30 39 40 41 41 40 53 62 63 69 79 91 98 94 94 95 93 91 84 71 72 74 82 76 58 90 89 88 81 97 98
73 73 72 72 69 57 50 58 57 31 61 74 70 63 43 45 46 40 50 59 65 74 89 87 98 90 90 81 82 85 91 96 76 70 88 78 82 61 56 90 98 95 90 99 99
74 74 73 73 69 55 60 79 80 74 80 67 67 69 60 59 56 43 59 73 87 94 87 78 90 85 76 69 90 92 92 93 77 79 96 87 75 60 55 86 91 95 95 98 99
74 74 74 76 59 66 70 71 74 74 86 57 46 56 39 44 52 60 71 85 94 79 79 89 80 73 97 83 96 86 95 92 85 97 97 86 83 84 74 90 97 92 92 95 98
74 73 77 79 46 70 68 64 76 75 82 35 42 39 40 48 56 50 72 87 84 88 89 87 84 86 84 96 93 98 77 77 89 94 98 89 97 89 72 99 92 99 98 93 99
74 72 73 71 67 60 54 67 81 70 51 32 48 38 44 51 48 51 66 76 94 84 82 76 81 85 97 99 78 85 74 75 90 96 98 96 94 82 90 100 90 85 96 99 100
74 72 74 71 65 63 66 82 64 71 47 57 54 59 66 61 53 59 68 68 80 87 83 88 69 82 100 94 95 83 87 98 98 98 96 96 87 89 97 98 84 96 99 99 99
74 73 76 71 56 64 83 67 77 66 53 54 70 67 74 72 68 73 84 92 95 95 92 77 78 64 90 94 76 87 95 98 96 96 94 96 89 98 91 88 96 100 99 99 100
78 73 64 59 65 76 61 68 54 63 86 65 71 72 77 73 68 82 83 87 89 92 97 98 88 79 74 99 99 97 97 97 96 99 97 96 96 99 89 88 99 100 100 97 97
77 86 62 57 73 70 65 88 81 85 68 78 75 85 83 77 80 83 94 79 88 95 99 98 84 71 83 82 93 82 91 70 96 96 94 96 85 84 86 95 96 99 98 99 98
93 87 66 67 71 61 87 76 73 65 72 83 97 87 98 89 88 93 97 79 86 80 92 94 96 79 87 72 81 80 71 81 91 96 96 95 96 93 88 94 96 99 99 99 99
84 66 56 73 60 69 88 77 70 55 70 91 91 92 94 99 98 100 93 79 85 86 91 96 98 75 78 92 95 89 94 90 81 92 95 94 96 89 94 95 98 100 99 98 99
83 72 60 58 78 98 89 81 54 62 67 78 91 96 95 92 100 99 97 85 77 89 95 91 98 98 86 69 83 96 94 92 92 84 96 93 96 93 94 98 99 100 100 99 98
78 85 79 51 84 93 73 62 68 66 68 73 78 82 84 92 96 92 87 73 70 90 94 93 96 96 78 73 68 98 86 83 92 93 99 93 90 91 88 93 96 100 100 99 94
83 88 85 94 93 78 85 74 80 67 69 70 78 75 87 90 83 92 81 70 65 86 69 86 97 96 97 96 96 97 95 84 89 96 94 95 95 92 95 94 97 99 100 100 95
84 90 79 88 92 91 88 88 85 81 70 74 77 79 97 98 99 95 88 72 73 80 81 92 99 98 90 88 84 94 96 95 96 93 91 90 99 91 92 99 98 97 98 100 99
94 90 93 94 82 91 93 94 80 83 81 79 87 76 94 100 89 96 93 91 93 88 97 93 98 97 95 75 86 94 89 92 96 92 89 91 93 85 95 95 97 96 99 96 95
91 88 89 85 97 92 92 85 78 80 73 74 85 96 98 89 86 85 82 88 94 99 98 97 98 94 98 86 88 89 99 98 94 95 96 93 88 88 91 79 90 95 96 93 97
Wind_Speed
17 18 18 18 18 20 20 20 20 20 19 20 19 19 17 16 15 5 7 2 5 12 7 5 7 5 3 2 3 6 5 12 7 7 5 3 1 2 2 5 2 2 5 5 14
18 18 19 19 20 20 20 20 20 19 19 18 17 17 15 13 4 8 3 3 6 10 5 7 6 7 3 2 4 8 12 8 4 4 5 5 3 6 2 2 1 2 1 14 18
19 19 19 20 21 21 21 20 19 19 18 16 15 15 14 4 4 2 6 7 9 8 3 2 3 4 1 2 4 6 27 1 3 2 5 6 5 5 8 4 6 9 17 19 18
19 19 20 21 22 22 22 20 19 19 17 15 13 13 13 1 4 3 10 7 10 4 2 3 5 4 2 4 4 15 17 13 13 7 5 3 6 10 1 4 9 10 20 18 18
20 20 21 22 23 24 22 21 20 20 17 12 9 10 4 6 2 4 12 7 5 2 3 2 1 2 3 4 6 10 13 16 20 16 11 13 9 5 11 11 3 10 17 14 15
21 22 22 23 24 25 24 23 22 21 15 7 5 4 3 7 3 4 7 6 4 2 3 3 6 6 6 7 7 5 9 13 12 16 10 17 15 6 5 4 8 16 13 12 12
21 22 23 24 25 25 25 24 24 18 9 2 2 2 5 4 3 7 7 4 3 2 3 4 4 5 2 5 8 9 8 9 12 8 8 8 18 19 5 8 12 16 11 10 11
21 22 23 25 25 25 26 25 19 11 13 0 3 3 2 4 4 9 5 7 6 5 5 8 7 6 5 2 6 6 3 7 11 11 8 9 18 24 8 12 13 13 10 10 13
21 22 23 24 25 23 25 23 11 11 11 7 5 2 4 8 7 8 2 6 6 6 4 6 3 6 3 4 7 6 4 5 10 10 8 15 10 11 8 11 13 14 10 11 11
21 21 22 23 22 19 25 16 8 7 6 1 3 3 7 8 6 8 6 6 6 5 5 5 2 1 0 4 8 4 4 5 9 5 12 11 13 9 10 10 12 14 11 10 12
20 21 22 22 20 14 14 7 9 8 11 2 2 2 7 10 5 5 6 9 5 4 3 2 1 8 11 12 13 10 12 12 10 10 11 14 11 13 6 10 11 10 14 8 10
21 22 23 21 14 9 5 7 0 2 5 2 4 6 8 4 5 6 8 8 6 6 7 3 8 8 9 10 11 12 12 10 13 6 6 7 14 9 3 5 12 11 14 14 8
21 22 23 22 4 7 5 3 4 3 0 6 5 4 6 3 5 8 7 6 2 6 10 6 8 11 8 10 9 9 8 5 7 5 9 4 3 2 1 4 4 9 10 15 16
20 21 21 23 5 2 2 5 2 3 5 8 7 5 9 8 3 4 5 2 5 6 6 7 4 8 13 8 9 4 8 10 4 3 3 3 3 2 4 1 7 9 12 12 10
21 21 20 7 1 3 4 4 0 4 5 13 8 3 10 4 8 8 4 5 3 6 4 6 6 14 14 3 8 8 2 7 1 3 2 4 4 1 7 3 7 9 7 8 6
19 21 18 2 2 2 4 1 4 8 5 7 6 9 10 6 8 9 8 8 2 4 4 8 6 3 4 6 3 3 1 2 2 1 4 4 5 3 3 4 4 5 7 7 8
19 22 7 1 4 2 1 4 8 8 4 9 6 9 8 7 7 8 7 10 12 11 9 9 4 4 4 6 4 5 3 3 4 5 1 4 5 1 6 6 4 5 7 7 7
18 11 5 1 4 1 3 7 10 3 4 4 5 10 4 9 5 8 7 9 3 6 5 6 11 8 5 3 4 3 2 3 3 2 1 3 2 3 5 5 6 11 9 10 9
12 4 2 3 5 2 7 8 6 6 4 7 9 5 5 4 2 8 4 8 4 6 5 5 7 5 3 3 1 4 4 1 2 1 3 1 2 1 2 7 8 8 9 9 8
2 3 4 7 2 5 8 4 3 2 2 2 2 4 4 7 8 7 4 4 7 5 2 4 8 2 8 4 2 0 5 4 4 2 2 2 3 2 6 5 4 4 6 5 5
4 4 4 6 4 7 5 4 2 2 1 3 1 5 4 4 1 4 4 5 5 8 4 3 2 10 5 6 6 7 5 4 3 3 3 2 1 2 4 4 2 2 3 3 4
2 3 4 4 6 2 3 4 1 1 2 0 1 3 2 3 3 3 4 5 7 5 7 2 3 4 5 5 2 2 4 2 4 6 2 3 1 2 2 4 2 4 2 2 3
2 3 3 5 4 2 2 1 1 0 1 1 1 1 1 3 3 4 3 3 8 5 11 6 2 5 9 6 5 5 6 3 2 1 2 4 3 3 4 6 5 5 3 2 4
2 3 5 5 1 6 4 2 1 1 2 1 2 2 3 3 2 5 4 4 12 3 13 2 1 3 4 4 3 5 8 7 2 3 2 1 2 6 5 3 3 2 1 0 2
2 3 4 2 3 3 3 3 2 1 1 1 1 3 3 3 5 3 2 7 4 6 5 5 2 3 7 8 3 2 4 8 5 1 3 3 2 4 4 2 2 2 1 3 3
4 3 3 1 3 5 3 5 5 2 4 2 3 2 3 4 7 5 4 1 3 6 4 4 2 4 4 6 6 0 6 5 4 5 5 4 3 2 3 4 2 1 2 3 2
1 2 5 1 2 4 5 5 6 4 3 5 4 1 3 7 6 8 6 6 6 3 3 4 3 5 5 5 5 5 3 3 2 2 2 1 0 1 2 3 2 3 4 3 2
Wind_Direction
13 10 6 2 359 355 354 352 351 347 345 344 342 340 338 339 337 14 52 222 354 17 31 0 20 9 15 221 275 142 246 247 253 163 247 330 142 339 52 123 58 311 168 195 128
10 6 3 359 355 353 352 349 346 343 341 343 343 341 340 349 7 38 346 87 2 17 17 19 354 355 352 270 230 208 226 241 208 205 300 331 23 332 277 148 104 36 48 137 137
7 4 1 357 352 349 347 347 344 339 340 340 341 336 333 14 84 359 344 356 360 38 19 352 359 5 264 276 236 246 241 172 245 326 10 327 327 333 354 249 209 184 162 157 147
5 1 358 355 349 345 343 343 341 336 337 333 336 333 333 352 97 278 330 339 344 34 39 4 3 2 297 267 300 269 273 281 266 296 297 281 312 325 275 275 301 186 170 158 160
1 359 356 353 347 342 341 340 339 336 329 323 324 335 10 46 140 281 333 311 309 304 293 294 305 232 242 266 306 268 288 280 279 286 287 297 264 246 281 289 124 159 157 166 157
360 355 353 350 346 341 337 338 339 333 331 319 326 8 55 73 283 274 313 318 296 235 251 189 227 214 245 230 227 284 310 291 289 285 279 265 285 180 241 95 148 171 164 165 151
357 354 351 348 345 341 335 337 339 338 4 83 85 64 59 108 264 310 298 279 254 210 241 218 212 178 213 302 261 263 282 288 268 236 238 226 260 241 226 157 185 181 169 145 138
356 352 351 349 345 341 334 337 339 348 337 92 80 69 114 261 285 308 299 300 271 250 213 230 205 203 183 275 314 271 252 255 249 216 215 169 251 264 191 165 189 193 174 147 142
355 353 350 349 347 343 335 336 337 337 358 134 45 22 358 323 340 318 294 286 294 271 266 275 159 206 150 245 264 218 246 239 289 217 226 192 238 252 213 178 174 192 178 148 139
354 352 350 350 350 351 338 337 346 10 2 66 88 31 348 310 308 315 289 280 274 320 343 44 39 239 65 216 255 222 259 261 250 250 228 208 215 277 204 173 172 182 174 159 150
354 350 348 349 350 2 355 12 12 356 37 67 301 255 274 300 280 310 332 331 353 34 350 283 302 251 239 228 246 270 252 261 273 273 301 211 192 195 250 190 166 171 158 150 145
352 347 345 347 358 37 28 67 111 192 318 289 248 268 254 240 294 307 11 6 4 344 338 291 267 288 295 255 246 268 274 266 269 296 236 228 200 202 164 229 170 166 159 154 131
348 347 343 344 67 49 76 50 312 138 81 304 250 266 299 343 307 311 28 321 341 333 327 287 277 320 284 263 249 249 257 248 272 346 252 145 51 203 68 17 169 177 160 164 157
345 346 344 337 52 332 67 318 12 118 73 340 347 353 346 334 334 344 19 356 341 315 319 273 284 276 293 264 199 268 227 241 278 317 127 21 140 186 208 9 188 134 146 161 141
342 343 344 12 263 34 306 333 116 58 26 328 317 308 314 54 284 331 336 0 299 300 301 270 309 325 306 296 158 237 229 196 234 337 23 15 104 218 132 186 170 162 118 88 85
339 337 339 24 20 256 325 60 58 43 288 331 334 341 358 357 341 324 9 360 241 322 291 261 282 318 299 313 315 306 97 100 107 132 32 302 100 1 36 338 161 106 95 103 110
338 333 339 83 306 331 70 56 30 83 0 337 338 342 337 318 325 11 348 8 30 350 1 323 311 306 353 328 7 48 16 4 17 30 192 333 62 183 332 339 308 130 97 73 80
336 341 326 236 319 349 65 46 66 280 306 317 311 315 336 1 344 338 2 12 350 17 315 350 334 2 355 349 319 314 14 131 150 130 176 62 55 3 358 8 52 88 94 78 63
345 339 4 312 323 82 70 51 190 216 266 322 326 347 328 1 350 3 39 6 341 357 356 333 284 325 257 291 257 329 40 312 87 58 75 49 40 143 87 58 51 78 84 80 70
33 0 286 325 360 63 72 151 196 174 321 48 337 15 322 329 2 31 0 299 344 340 223 316 294 294 298 345 323 328 319 32 347 76 51 91 66 4 352 38 86 91 90 88 93
49 20 264 338 57 49 106 191 219 234 152 165 224 301 290 294 151 300 306 290 6 313 355 324 290 302 3 7 340 347 7 360 127 110 143 134 22 255 273 301 252 116 98 101 110
75 0 323 25 49 11 121 187 263 249 54 53 215 239 279 310 302 281 256 212 2 329 353 299 310 282 271 316 319 307 338 43 89 309 70 129 262 342 357 309 201 136 89 24 65
91 274 339 71 102 332 286 164 205 303 198 214 260 185 272 270 326 224 298 263 0 359 344 339 328 339 347 357 7 28 337 327 204 119 9 104 260 111 59 77 37 110 98 106 134
69 1 331 49 130 134 141 204 247 231 199 185 229 70 8 311 210 292 306 321 330 337 4 344 263 161 217 266 319 321 332 341 63 60 229 248 339 358 28 57 89 107 98 173 175
62 248 191 276 316 94 83 189 164 232 248 210 190 149 154 290 304 266 272 324 309 344 18 71 331 350 276 272 284 318 333 342 55 317 121 211 104 337 5 169 195 193 219 182 181
148 152 13 140 99 92 319 240 194 249 156 232 161 211 164 219 198 277 332 357 275 333 42 2 317 344 292 349 353 20 359 350 14 10 60 74 28 350 42 98 86 209 215 234 226
134 37 108 187 118 105 216 206 217 129 294 202 191 112 266 249 236 252 267 256 252 289 318 66 8 352 279 4 345 358 322 339 328 354 350 135 239 153 62 113 154 230 220 227 216